[[{"header":{"parameterUnit":"m.s-1","parameterCategory":1,"la1":30.2991,"la2":30.254,"lo1":-89.0895,"lo2":-89.0444,"dx":0.0017,"dy":0.0017,"nx":28,"ny":28,"refTime":"2023-02-12T09:00:00:Z","depth":0,"parameterNumber":2,"parameterNumberName":"U-component_of_WINDS"},"data":[0,0,0,0,0,0,0,0,0,0,0,0,0,0,0,0,0,0,0,0,0,0,0,0,0,0,0,0,0,0,0,0,0,0,0,0,0,0,0,0,0,0,0,0,0,0,0,0,0,0,0,0,0,0,0,0,0,0,4.8658,4.8659,0,4.8769,4.877,4.8771,4.8732,4.873,4.8728,4.8725,4.8842,4.8847,4.8853,0,0,0,0,0,0,0,0,0,0,0,0,0,4.8418,4.8423,4.8658,4.8659,4.8661,4.8768,4.877,4.8771,4.8733,4.873,4.8727,4.8724,4.884,4.8847,4.8853,0,0,0,0,0,0,0,0,0,0,0,0,0,4.8525,4.8424,4.8658,4.8654,4.8655,4.8768,4.877,4.8772,4.8733,4.873,4.8726,4.8723,4.8838,4.8846,4.8854,4.8978,0,0,4.8879,4.8882,0,0,0,0,0,0,0,0,4.8519,4.8534,4.8653,4.8655,4.8656,4.8733,4.8728,4.8841,4.8734,4.8704,4.8725,4.8721,4.8809,4.8819,4.8848,4.8983,4.8988,4.8879,4.8884,4.8888,4.889,0,0,0,0,0,0,0,4.8512,4.8529,4.8702,4.8655,4.8657,4.8649,4.866,4.875,4.8776,4.8706,4.8704,4.8717,4.8809,4.884,4.8851,4.899,4.8879,4.8886,4.8891,4.8895,4.9238,4.9242,0,0,0,0,0,0,4.8503,4.8523,4.8698,4.8705,4.8577,4.8656,4.8669,4.8712,4.8775,4.8781,4.872,4.8715,4.8828,4.8841,4.8855,4.9007,4.8888,4.8895,4.89,4.9234,4.9239,4.9243,0,0,0,0,0,0,4.8498,4.8519,4.8694,4.8614,4.8635,4.8664,4.8713,4.8716,4.8747,4.8785,4.879,4.8747,4.8826,4.8843,4.8948,4.9011,4.8899,4.8906,4.9229,4.9235,4.9241,4.9312,0,0,0,0,0,0,4.8491,4.8518,4.8563,4.8615,4.8639,4.8784,4.8717,4.8721,4.8761,4.8755,4.8812,4.8818,4.8824,4.8937,4.8957,4.902,4.8913,4.9223,4.9231,4.9239,4.9304,4.932,4.9333,0,0,0,0,0,4.8483,4.8579,4.8566,4.8587,4.8697,4.8788,4.8802,4.8807,4.8766,4.8814,4.8839,4.8816,4.9,4.8948,4.897,4.9037,4.9219,4.9229,4.9238,4.9298,4.9317,4.9333,0,0,0,0,0,0,4.8534,4.8585,4.8572,4.8686,4.8733,4.8781,4.8841,4.8826,4.8886,4.8878,4.8883,4.8896,4.9005,4.9031,4.8971,4.9162,4.9104,4.9118,4.9141,4.916,4.9174,4.9167,4.8919,0,0,0,0,0,4.8559,4.8627,4.8668,4.8765,4.8789,4.8812,4.8851,4.8851,4.89,4.8919,4.8952,4.9001,4.9071,4.9116,4.9182,4.9307,4.9321,4.9364,4.9379,4.9391,4.9404,4.9477,4.9497,4.9275,4.9275,4.9274,0,0,4.8611,4.8647,4.8689,4.8777,4.8813,4.8886,4.8828,4.8906,4.8961,4.8932,4.9034,4.9059,4.9115,4.9232,4.9285,4.9257,4.9469,4.9403,4.9412,4.9419,4.9489,4.951,4.9528,4.9281,4.928,4.9279,0,0,4.8742,4.8775,4.8862,4.89,4.8955,4.8969,4.899,4.9041,4.9058,4.916,4.914,4.9206,4.9324,4.9366,4.9403,4.9555,4.9537,4.9576,4.9653,4.9724,4.9741,4.9757,4.9815,4.9835,4.9588,4.9588,4.9589,0,4.88,4.8907,4.8908,4.899,4.903,4.9006,4.9096,4.9133,4.9208,4.9237,4.9204,4.9355,4.9391,4.9519,4.9557,4.9586,4.9613,4.957,4.9738,4.9754,4.9769,4.9824,4.9845,4.9593,4.9592,4.9592,4.9592,0,4.8977,4.9052,4.9116,4.9189,4.9236,4.9321,4.9338,4.9386,4.9382,4.9401,4.9508,4.955,4.9626,4.9656,4.9652,4.9785,4.9767,4.9736,4.9678,4.9794,4.9847,4.9867,4.96,4.9598,4.9597,4.9595,0,0,4.9144,4.9218,4.9242,4.9277,4.9337,4.9396,4.9482,4.9555,4.9598,4.9651,4.9725,4.9827,4.98,4.9842,4.9844,4.9905,5.0028,4.9868,4.9869,4.9899,5.0181,5.0206,5.023,5.0016,5.002,5.0023,5.0178,0,4.9284,4.9433,4.9438,4.9575,4.9646,4.9626,4.9701,4.9748,4.9768,4.9833,4.9856,4.993,4.9887,4.9913,4.9972,5.0,5.0085,4.9988,5.0088,5.0091,5.0077,5.0257,5.0283,5.0427,5.0198,5.0201,5.0204,0,4.9466,4.9526,4.967,4.9724,4.9754,4.9821,4.9891,4.9952,5.0006,5.0017,5.0065,5.0059,5.0149,5.0087,5.0213,5.0148,5.0189,5.0209,5.0215,5.0226,5.0156,5.0277,5.0473,5.0496,5.0235,5.0232,5.023,0,4.9579,4.9694,4.9796,4.9826,4.989,4.9939,4.9968,5.0018,5.0063,5.0125,5.0155,5.0226,5.0266,5.0322,5.0337,5.0289,5.0465,5.0402,5.0479,5.048,5.0519,5.0517,5.0728,5.054,5.054,5.054,5.0539,0,4.9736,4.9826,4.9848,4.9912,5.0013,5.0019,5.012,5.0146,5.0191,5.0261,5.0247,5.0314,5.0327,5.0397,5.0408,5.0514,5.0531,5.0545,5.0548,5.0548,5.0547,5.0577,5.0569,5.0545,5.0544,5.0543,5.0542,0,4.9879,4.9897,5.0008,5.006,5.0076,5.0149,5.0195,5.0257,5.0276,5.0365,5.0386,5.0417,5.0499,5.0518,5.0615,5.0623,5.075,5.0741,5.0732,5.0732,5.081,5.0804,5.105,5.1084,5.0871,5.0873,5.0874,0,4.998,5.0049,5.0109,5.0155,5.0186,5.0259,5.0306,5.0315,5.0364,5.0433,5.0488,5.0568,5.0633,5.0766,5.0798,5.0874,5.0869,5.095,5.088,5.088,5.0875,5.0872,5.0881,5.0964,5.0966,5.0968,5.097,0,5.0158,5.0164,5.0231,5.0302,5.0358,5.0414,5.0468,5.0507,5.0524,5.0581,5.0664,5.0715,5.0815,5.0896,5.0973,5.1005,5.0993,5.0991,5.1014,5.1017,5.101,5.1019,5.0772,5.0986,5.0985,5.0983,5.0982,5.0982,5.0286,5.0348,5.0401,5.0477,5.0518,5.057,5.0632,5.0659,5.0728,5.081,5.0812,5.0904,5.096,5.1061,5.1098,5.1172,5.1148,5.1179,5.1188,5.1197,5.1205,5.0996,5.1186,5.1185,5.1185,5.1185,5.1184,0,5.0467,5.05,5.057,5.0646,5.0707,5.0687,5.0747,5.08,5.0881,5.0933,5.0997,5.1096,5.1175,5.1215,5.1294,5.1346,5.1343,5.1367,5.1365,5.1374,5.1221,5.1195,5.1369,5.1369,5.1369,5.1369,5.1369,5.1369,5.0568,5.0673,5.0686,5.0813,5.0846,5.0935,5.0972,5.1021,5.1063,5.1173,5.1239,5.1263,5.1312,5.1395,5.1468,5.1478,5.151,5.1539,5.1546,5.1403,5.1384,5.1366,5.1342,5.1544,5.1545,5.1693,5.1694,5.1696]},{"header":{"parameterUnit":"m.s-1","parameterCategory":1,"la1":30.2991,"la2":30.254,"lo1":-89.0895,"lo2":-89.0444,"dx":0.0017,"dy":0.0017,"nx":28,"ny":28,"refTime":"2023-02-12T09:00:00:Z","depth":0,"parameterNumber":3,"parameterNumberName":"V-component_of_WINDS"},"data":[0,0,0,0,0,0,0,0,0,0,0,0,0,0,0,0,0,0,0,0,0,0,0,0,0,0,0,0,0,0,0,0,0,0,0,0,0,0,0,0,0,0,0,0,0,0,0,0,0,0,0,0,0,0,0,0,0,0,-2.865,-2.865,0,-2.8701,-2.8701,-2.8702,-2.876,-2.8761,-2.8762,-2.8763,-2.8812,-2.8812,-2.8813,0,0,0,0,0,0,0,0,0,0,0,0,0,-2.8601,-2.8602,-2.865,-2.865,-2.8651,-2.8701,-2.8701,-2.8702,-2.876,-2.8761,-2.8762,-2.8763,-2.8812,-2.8812,-2.8813,0,0,0,0,0,0,0,0,0,0,0,0,0,-2.8634,-2.8602,-2.865,-2.8686,-2.869,-2.8701,-2.8702,-2.8702,-2.876,-2.8761,-2.8762,-2.8764,-2.8812,-2.8812,-2.8813,-2.8791,0,0,-2.8815,-2.8815,0,0,0,0,0,0,0,0,-2.8632,-2.8636,-2.868,-2.8684,-2.8688,-2.8726,-2.8702,-2.8732,-2.876,-2.8733,-2.8763,-2.8764,-2.8782,-2.8785,-2.8792,-2.8793,-2.8795,-2.8815,-2.8816,-2.8816,-2.8816,0,0,0,0,0,0,0,-2.863,-2.8634,-2.867,-2.8681,-2.8685,-2.8699,-2.8706,-2.8708,-2.8749,-2.8736,-2.874,-2.8745,-2.8784,-2.8791,-2.8793,-2.8796,-2.8815,-2.8816,-2.8816,-2.8817,-2.8784,-2.8783,0,0,0,0,0,0,-2.8622,-2.8632,-2.8668,-2.8671,-2.8663,-2.8699,-2.8706,-2.8712,-2.875,-2.8757,-2.8744,-2.8748,-2.8789,-2.8792,-2.8795,-2.8773,-2.8816,-2.8817,-2.8817,-2.8786,-2.8784,-2.8783,0,0,0,0,0,0,-2.8621,-2.8625,-2.8666,-2.8653,-2.8659,-2.8699,-2.8705,-2.8712,-2.8719,-2.8756,-2.8764,-2.8743,-2.879,-2.8794,-2.8792,-2.8775,-2.8817,-2.8818,-2.8787,-2.8785,-2.8783,-2.8727,0,0,0,0,0,0,-2.8619,-2.8624,-2.8616,-2.8652,-2.866,-2.8662,-2.8704,-2.8712,-2.8721,-2.8726,-2.8757,-2.8764,-2.8791,-2.8791,-2.8793,-2.8777,-2.8818,-2.8789,-2.8786,-2.8784,-2.8731,-2.8724,-2.8718,0,0,0,0,0,-2.8618,-2.8598,-2.8616,-2.862,-2.8651,-2.8661,-2.8666,-2.8699,-2.8719,-2.8711,-2.8736,-2.8763,-2.8777,-2.879,-2.8793,-2.8777,-2.879,-2.8787,-2.8784,-2.8734,-2.8725,-2.8718,0,0,0,0,0,0,-2.8557,-2.8603,-2.8623,-2.8615,-2.8634,-2.8671,-2.8662,-2.8688,-2.8701,-2.8705,-2.8745,-2.8752,-2.8745,-2.8761,-2.8775,-2.8759,-2.8788,-2.8785,-2.8748,-2.874,-2.8734,-2.873,-2.8819,0,0,0,0,0,-2.8543,-2.8548,-2.8588,-2.8576,-2.8585,-2.8622,-2.8628,-2.8652,-2.8673,-2.8681,-2.8705,-2.8724,-2.8733,-2.8738,-2.8748,-2.8734,-2.8742,-2.8725,-2.8718,-2.8712,-2.8709,-2.8704,-2.8697,-2.8773,-2.8773,-2.8773,0,0,-2.8513,-2.8539,-2.8539,-2.8565,-2.8583,-2.8587,-2.8628,-2.8631,-2.8635,-2.8681,-2.8681,-2.87,-2.8723,-2.8716,-2.8713,-2.8729,-2.8691,-2.8709,-2.8704,-2.8704,-2.87,-2.8693,-2.8687,-2.8771,-2.8771,-2.8772,0,0,-2.8461,-2.8481,-2.8474,-2.8492,-2.8519,-2.8544,-2.8543,-2.8577,-2.8591,-2.8593,-2.8628,-2.8633,-2.8647,-2.8663,-2.8673,-2.863,-2.8656,-2.8632,-2.8597,-2.8592,-2.8586,-2.858,-2.8565,-2.8559,-2.863,-2.8629,-2.8629,0,-2.842,-2.8429,-2.8467,-2.8468,-2.8478,-2.8523,-2.8517,-2.8532,-2.856,-2.8566,-2.8583,-2.8604,-2.8623,-2.862,-2.861,-2.8616,-2.8615,-2.8628,-2.8584,-2.8579,-2.8575,-2.856,-2.8554,-2.8626,-2.8627,-2.8627,-2.8627,0,-2.8377,-2.8383,-2.8374,-2.8403,-2.8412,-2.8409,-2.8447,-2.8452,-2.8476,-2.8499,-2.8501,-2.8526,-2.8542,-2.8544,-2.8566,-2.8544,-2.8553,-2.8576,-2.8606,-2.8564,-2.8551,-2.8546,-2.8622,-2.8623,-2.8624,-2.8625,0,0,-2.8286,-2.8338,-2.8334,-2.8348,-2.8382,-2.8387,-2.8387,-2.8405,-2.8408,-2.8427,-2.8428,-2.844,-2.8463,-2.8474,-2.85,-2.8495,-2.846,-2.8519,-2.852,-2.8507,-2.8437,-2.8419,-2.8412,-2.8478,-2.8477,-2.8476,-2.8435,0,-2.8239,-2.8242,-2.8278,-2.827,-2.8277,-2.8321,-2.8321,-2.8342,-2.8364,-2.8372,-2.8397,-2.8405,-2.8435,-2.8442,-2.8439,-2.8464,-2.8446,-2.8468,-2.8478,-2.8478,-2.847,-2.8405,-2.8385,-2.8345,-2.8431,-2.843,-2.8429,0,-2.8185,-2.8203,-2.8196,-2.8233,-2.8237,-2.8236,-2.8256,-2.8264,-2.8289,-2.8306,-2.832,-2.8349,-2.8352,-2.8381,-2.8384,-2.8399,-2.8405,-2.8418,-2.8418,-2.8419,-2.845,-2.8404,-2.8333,-2.8327,-2.8422,-2.8422,-2.8423,0,-2.8118,-2.8141,-2.814,-2.8151,-2.8194,-2.8192,-2.821,-2.8237,-2.8246,-2.8264,-2.827,-2.8287,-2.8296,-2.8309,-2.8342,-2.836,-2.8342,-2.8374,-2.8355,-2.8354,-2.8348,-2.8348,-2.8277,-2.8354,-2.8354,-2.8354,-2.8354,0,-2.8062,-2.8056,-2.8111,-2.811,-2.8106,-2.8148,-2.8141,-2.8163,-2.8187,-2.8192,-2.8231,-2.8234,-2.8279,-2.8287,-2.8313,-2.8312,-2.8316,-2.833,-2.8336,-2.8325,-2.8324,-2.8329,-2.8332,-2.8352,-2.8353,-2.8353,-2.8353,0,-2.7986,-2.8023,-2.8025,-2.8067,-2.8077,-2.8072,-2.8107,-2.8108,-2.8134,-2.8139,-2.8143,-2.8184,-2.8196,-2.8231,-2.8251,-2.8269,-2.826,-2.8274,-2.8252,-2.8256,-2.8236,-2.8237,-2.8165,-2.8157,-2.824,-2.8239,-2.8238,0,-2.7947,-2.7944,-2.7986,-2.7993,-2.8009,-2.8019,-2.8029,-2.8071,-2.808,-2.811,-2.8107,-2.8123,-2.8137,-2.8154,-2.8185,-2.8201,-2.8215,-2.8189,-2.8217,-2.8207,-2.8214,-2.8214,-2.8214,-2.8182,-2.8181,-2.818,-2.8179,0,-2.7874,-2.7893,-2.7907,-2.7928,-2.7939,-2.7957,-2.7977,-2.798,-2.8026,-2.8035,-2.8048,-2.806,-2.8082,-2.8097,-2.8118,-2.8136,-2.8165,-2.817,-2.8167,-2.8155,-2.8142,-2.8149,-2.8234,-2.8171,-2.8172,-2.8173,-2.8173,-2.8173,-2.7815,-2.7815,-2.7845,-2.786,-2.788,-2.7898,-2.7902,-2.793,-2.7942,-2.7964,-2.7988,-2.7999,-2.8027,-2.8059,-2.8075,-2.8084,-2.8099,-2.8094,-2.8093,-2.8091,-2.8086,-2.8142,-2.8088,-2.8088,-2.8089,-2.8089,-2.8089,0,-2.7744,-2.7767,-2.778,-2.7808,-2.7819,-2.7848,-2.7872,-2.7879,-2.7889,-2.7913,-2.7927,-2.7943,-2.7959,-2.7992,-2.801,-2.8011,-2.8025,-2.8014,-2.8014,-2.8018,-2.8071,-2.8072,-2.8003,-2.8003,-2.8003,-2.8003,-2.8003,-2.8003,-2.7708,-2.771,-2.7733,-2.7745,-2.7768,-2.778,-2.7791,-2.7809,-2.7828,-2.7845,-2.7858,-2.7881,-2.7908,-2.7929,-2.7945,-2.7954,-2.7959,-2.7944,-2.7957,-2.8006,-2.8014,-2.8022,-2.8023,-2.7945,-2.7945,-2.7903,-2.7903,-2.7903]}]]